Regional Weather Roundup
Issued by NWS

Home | Current Version | Previous Version | Text Only | Print | Product List | Glossary Off
Versions: 1 2 3 4 5 6 7 8 9 10 11 12 13 14 15 16 17 18 19 20 21 22 23 24 25 26 27

000
ASUS45 KSLC 250310
RWRUT

UTAH REGIONAL WEATHER ROUNDUP
NATIONAL WEATHER SERVICE SALT LAKE CITY UT
900 PM MDT WED MAY 24 2017

UTZ001>011-023>025-250400-

NORTHERN UTAH

CITY           SKY/WX    TMP DP  RH WIND       PRES   REMARKS
BRIGHAM CITY   CLOUDY    64  47  53 NW5       29.56R
HILL AFB       MOCLDY    66  46  47 S12       29.54F
LOGAN          MOCLDY    69  47  45 N14G22    29.56R
OGDEN          CLOUDY    66  48  52 SE9       29.51F
SALT LAKE CITY CLOUDY    71  49  45 SE14      29.54F
TOOELE VALLEY  CLOUDY    68  45  42 S12       29.59R
WENDOVER       MOCLDY    79  34  19 SW13      29.50F
WEST JORDAN    CLOUDY    70  48  46 S10       29.61R

$$

UTZ011>015-024>027-250400-

CENTRAL/NORTHEAST UTAH

CITY           SKY/WX    TMP DP  RH WIND       PRES   REMARKS
PROVO AIRPORT  CLOUDY    72  48  42 SW10      29.63R
MOAB/CANYONLAN MOCLDY    78  27  15 S7        29.53F
DELTA          CLOUDY    72  34  25 W13       29.65R
PRICE          MOCLDY    74  26  16 SW21G29   29.64F
ROOSEVELT      PTCLDY    73  32  21 W12       29.59F
VERNAL         PTCLDY    75  30  19 W9        29.56F

$$

UTZ013>016-019>022-027-250400-

SOUTHERN UTAH

CITY           SKY/WX    TMP DP  RH WIND       PRES   REMARKS
BRYCE CANYON   PTCLDY    59  23  25 SW7       29.88F
CEDAR CITY     PTCLDY    74  13   9 SW18G26   29.71S
MILFORD        CLOUDY    74  30  19 W12       29.65F
ST GEORGE      CLOUDY    91  18   7 SW23G33   29.53S
HANKSVILLE     CLEAR     84  23  10 W14G22    29.58S
BLANDING       CLEAR     75  21  13 SW13      29.80S

$$

REGIONAL REPORTS     COLORADO/ARIZONA

CITY           SKY/WX    TMP DP  RH WIND       PRES   REMARKS
CRAIG, CO      CLOUDY    58  37  45 CALM      29.65F
GRAND JUNCTION MOCLDY    76  32  20 CALM      29.59S
RIFLE, CO      LGT RAIN  72  35  25 SW22G72   29.68R SQUALL
MONTROSE, CO   PTCLDY    75  26  16 SW9       29.71R
CORTEZ, CO     CLEAR     66  30  26 S3        29.76S
COLORADO CITY    N/A     82  23  11 SW16G22   29.75S
PAGE, AZ       PTCLDY    87  22   9 SW10G21   29.64R
GRAND CANYON   MOCLDY    69  23  17 SW12      29.91S
KINGMAN, AZ    MOCLDY    84  22  10 S12       29.69S
FLAGSTAFF, AZ  PTCLDY    68  23  18 SW15      29.95S

$$

REGIONAL REPORTS    NEVADA/IDAHO/WYOMING

CITY           SKY/WX    TMP DP  RH WIND       PRES   REMARKS
LAS VEGAS, NV  PTCLDY    94  14   5 SW15G26   29.52S
ELY, NY        MOCLDY    58  40  51 S10       29.73F
ELKO, NV       PTCLDY    74  24  15 W13       29.58F
POCATELLO, ID  PTCLDY    61  30  31 W15       29.60R
BURLEY, ID     MOCLDY    62  26  25 W12G18    29.59R
FORT BRIDGER,  LGT RAIN  55  44  67 W35G49    29.77R
EVANSTON, WY   RAIN      51  46  83 SW32G41   29.75R
ROCK SPRINGS,  CLOUDY    64  37  36 NW8       29.66R
KEMMERER, WY     N/A     59  37  44 SW35G53   29.72R

$$




USA.gov is the U.S. government's official web portal to all federal, state and local government web resources and services.